Regional Weather Roundup
Issued by NWS

Home | Current Version | Previous Version | Text Only | Print | Product List | Glossary Off
Versions: 1 2 3 4 5 6 7 8 9 10 11 12 13 14 15 16 17 18 19 20 21 22 23 24 25 26 27 28 29 30 31 32 33 34 35 36 37 38 39 40 41 42 43 44 45 46 47 48 49 50

000
ASUS43 KLMK 291102
RWRKY
KENTUCKY REGIONAL WEATHER ROUNDUP
NATIONAL WEATHER SERVICE LOUISVILLE KY
700 AM EDT MON AUG 29 2016

NOTE "FAIR" INDICATES FEW OR NO CLOUDS BELOW 12,000 FEET
WITH NO SIGNIFICANT WEATHER AND/OR OBSTRUCTIONS TO VISIBILITY.

KYZ001>023-026-027-061>063-070>075-291200-
WESTERN AND SOUTH CENTRAL KENTUCKY

CITY           SKY/WX    TMP DP  RH WIND       PRES   REMARKS
PADUCAH        CLEAR     72  70  93 NE5       30.11R FOG
HENDERSON      CLEAR     72  66  83 E3        30.14R
OWENSBORO      CLEAR     73  72  97 NE3       30.16R
HOPKINSVILLE   CLEAR     71  69  93 NE5       30.12R
BOWLING GREEN  CLEAR     71  68  90 NE3       30.14R
GLASGOW        CLEAR     69  69 100 NE5       30.15R
$$

KYZ024-025-028>034-038-045-046-053-291200-
NORTH CENTRAL KENTUCKY

CITY           SKY/WX    TMP DP  RH WIND       PRES   REMARKS
LOUISVILLE/SDF PTCLDY    72  68  87 NE6       30.18R
LOUISVILLE/LOU CLEAR     71  67  87 NE3       30.18R
FORT KNOX      CLEAR     69  68  95 N6        30.16R
$$

KYZ035>037-039>044-047>052-055>060-089>105-291200-
NORTHEAST KENTUCKY

CITY           SKY/WX    TMP DP  RH WIND       PRES   REMARKS
LEXINGTON      CLEAR     69  67  93 CALM      30.19S FOG
COVINGTON      PTCLDY    69  68  96 N5        30.20R FOG
FRANKFORT      CLEAR     69  66  90 CALM      30.18R
$$

KYZ054-064>069-076>088-106>120-291200-
SOUTHEAST KENTUCKY

CITY           SKY/WX    TMP DP  RH WIND       PRES   REMARKS
JACKSON        CLEAR     68  65  90 CALM      30.20R
LONDON         CLEAR     69  66  90 N6        30.18R
SOMERSET       CLEAR     66  66 100 CALM      30.18R
MIDDLESBORO    CLOUDY    67  67 100 CALM      30.19R FOG
MONTICELLO     CLOUDY   N/A N/A N/A NW10      30.18R
$$





USA.gov is the U.S. government's official web portal to all federal, state and local government web resources and services.